Date String (YYYY-MM-DD hh:mm:ss) UTC,Instrument flags,Ambient pressure (hPa),Sample flow (lpm),Bypass flow (lpm),Sample temperature (°C),Ambient temperature (°C),ASC tube jacket temperature (°C),LED temperature (°C),Box temperature (°C),Sample RH (%),Span deviation,Mass concentration (μg/m³),Mass concentration (μg/m³),Mass concentration (μg/m³)
DateTimeUTC,F1_M11,P_M11,Q1_M11,Q2_M11,T1_M11,T2_M11,T3_M11,T4_M11,T5_M11,U1_M11,ZSPAN_M11,X0_M11,X2_M11,X1_M11
2022-09-16 16:00:00,,0826.4,4.99,0.00,30.6,28.3,00.0,39.2,32.4,25.7,0000.0,0009.23,0004.26,0003.71
2022-09-16 16:01:00,,0826.3,5.00,0.00,30.5,27.3,00.0,39.2,32.3,25.1,0000.0,0008.87,0004.15,0003.69
2022-09-16 16:02:00,,0826.3,5.01,0.00,30.5,27.2,00.0,39.1,32.2,24.4,0000.0,0008.77,0004.12,0003.68
2022-09-16 16:03:00,,0826.3,4.99,0.00,30.4,27.4,00.0,39.1,32.0,24.1,0000.0,0008.86,0004.10,0003.66
2022-09-16 16:04:00,,0826.3,5.01,0.00,30.3,27.7,00.0,39.0,32.0,24.1,0000.0,0009.53,0004.13,0003.64
2022-09-16 16:05:00,,0826.3,5.01,0.00,30.3,28.0,00.0,39.0,32.0,24.7,0000.0,0009.32,0004.12,0003.62
2022-09-16 16:06:00,,0826.3,5.00,0.00,30.3,28.2,00.0,39.0,32.0,25.4,0000.0,0008.84,0004.12,0003.62
2022-09-16 16:07:00,,0826.3,5.00,0.00,30.3,28.4,00.0,39.0,32.0,25.3,0000.0,0008.82,0004.13,0003.62
2022-09-16 16:08:00,,0826.3,5.01,0.00,30.3,28.6,00.0,39.0,32.0,25.9,0000.0,0009.24,0004.14,0003.62
2022-09-16 16:09:00,,0826.3,4.98,0.00,30.3,28.7,00.0,39.0,32.1,26.0,0000.0,0009.10,0004.15,0003.62
2022-09-16 16:10:00,,0826.4,5.00,0.00,30.3,28.8,00.0,39.0,32.1,26.2,0000.0,0009.12,0004.15,0003.64
2022-09-16 16:11:00,,0826.2,4.99,0.00,30.3,28.9,00.0,39.0,32.1,27.1,0000.0,0009.24,0004.15,0003.64
2022-09-16 16:12:00,,0826.3,5.01,0.00,30.3,29.0,00.0,39.0,32.1,27.1,0000.0,0009.35,0004.19,0003.66
2022-09-16 16:13:00,,0826.3,5.00,0.00,30.4,29.0,00.0,39.0,32.2,26.8,0000.0,0009.64,0004.19,0003.67
2022-09-16 16:14:00,,0826.3,5.00,0.00,30.4,29.1,00.0,39.0,32.2,26.4,0000.0,0009.69,0004.25,0003.71
2022-09-16 16:15:00,,0826.4,5.00,0.00,30.4,29.1,00.0,39.1,32.3,26.5,0000.0,0009.05,0004.26,0003.74
2022-09-16 16:16:00,,0826.3,4.99,0.00,30.4,28.2,00.0,39.0,32.3,26.5,0000.0,0008.97,0004.30,0003.77
2022-09-16 16:17:00,,0826.2,5.00,0.00,30.4,27.1,00.0,39.0,32.2,26.6,0000.0,0008.68,0004.36,0003.80
2022-09-16 16:18:00,,0826.2,5.00,0.00,30.4,27.0,00.0,39.0,32.1,26.8,0000.0,0008.65,0004.41,0003.83
2022-09-16 16:19:00,,0826.2,5.00,0.00,30.3,27.2,00.0,38.9,32.0,26.5,0000.0,0008.64,0004.46,0003.85
2022-09-16 16:20:00,,0826.2,5.01,0.00,30.2,27.5,00.0,38.9,31.9,26.1,0000.0,0008.94,0004.49,0003.86
2022-09-16 16:21:00,,0826.2,4.99,0.00,30.2,27.8,00.0,38.9,31.9,26.0,0000.1,0008.88,0004.48,0003.86
2022-09-16 16:22:00,,0826.2,5.00,0.00,30.2,28.1,00.0,38.9,31.9,25.8,0002.7,0008.77,0004.48,0003.87
2022-09-16 16:23:00,,0826.2,5.00,0.00,30.2,28.3,00.0,38.9,31.9,25.8,0002.9,0008.74,0004.47,0003.86
2022-09-16 16:24:00,,0826.2,4.99,0.00,30.2,28.5,00.0,38.9,32.0,26.1,0003.1,0008.51,0004.45,0003.84
2022-09-16 16:25:00,,0826.2,5.00,0.00,30.2,28.6,00.0,38.9,32.0,26.9,0003.3,0008.37,0004.43,0003.82
2022-09-16 16:26:00,,0826.2,5.00,0.00,30.2,28.7,00.0,38.9,32.0,27.3,0003.0,0008.51,0004.45,0003.82
2022-09-16 16:27:00,,0826.2,4.99,0.00,30.2,28.8,00.0,38.9,32.0,26.9,0002.9,0009.09,0004.45,0003.83
2022-09-16 16:28:00,,0826.2,5.00,0.00,30.2,28.9,00.0,38.9,32.1,26.7,0002.5,0009.56,0004.45,0003.83
2022-09-16 16:29:00,,0826.2,5.01,0.00,30.3,29.0,00.0,38.9,32.1,26.8,0002.1,0009.72,0004.42,0003.83
2022-09-16 16:30:00,,0826.2,4.99,0.00,30.3,29.1,00.0,38.9,32.2,27.1,0001.3,0009.75,0004.39,0003.83
2022-09-16 16:31:00,,0826.1,5.01,0.00,30.3,28.7,00.0,38.9,32.2,26.9,0001.4,0009.89,0004.40,0003.84
2022-09-16 16:32:00,,0826.1,5.00,0.00,30.3,27.5,00.0,38.9,32.1,26.7,0001.0,0010.30,0004.44,0003.85
2022-09-16 16:33:00,,0826.2,5.00,0.00,30.3,26.9,00.0,38.9,32.0,26.5,0000.8,0011.33,0004.49,0003.86
2022-09-16 16:34:00,,0826.2,5.00,0.00,30.2,27.1,00.0,38.8,32.0,26.5,0001.0,0011.54,0004.53,0003.87
2022-09-16 16:35:00,,0826.2,5.00,0.00,30.1,27.3,00.0,38.8,31.8,26.4,0000.2,0011.75,0004.57,0003.88
2022-09-16 16:36:00,,0826.1,5.01,0.00,30.1,27.6,00.0,38.8,31.8,27.3,0000.7,0011.87,0004.59,0003.90
2022-09-16 16:37:00,,0826.0,5.00,0.00,30.1,27.9,00.0,38.8,31.8,26.9,0000.0,0012.05,0004.62,0003.90
2022-09-16 16:38:00,,0826.0,4.99,0.00,30.1,28.1,00.0,38.8,31.8,26.8,0000.0,0012.08,0004.63,0003.89
2022-09-16 16:39:00,,0826.0,5.01,0.00,30.1,28.3,00.0,38.8,31.9,26.3,0000.0,0011.51,0004.63,0003.88
2022-09-16 16:40:00,,0826.0,4.99,0.00,30.1,28.5,00.0,38.8,31.9,26.5,0000.0,0011.40,0004.67,0003.87
2022-09-16 16:41:00,,0826.0,5.01,0.00,30.1,28.6,00.0,38.8,31.9,26.6,0000.0,0011.07,0004.65,0003.86
2022-09-16 16:42:00,,0826.1,5.00,0.00,30.1,28.7,00.0,38.8,32.0,25.7,0000.0,0010.42,0004.61,0003.85
2022-09-16 16:43:00,,0826.2,5.01,0.00,30.1,28.8,00.0,38.8,32.0,25.7,0000.0,0010.18,0004.59,0003.84
2022-09-16 16:44:00,,0826.1,4.98,0.00,30.2,28.9,00.0,38.8,32.1,25.6,0000.0,0009.24,0004.56,0003.83
2022-09-16 16:45:00,,0826.1,5.00,0.00,30.2,29.0,00.0,38.8,32.1,25.6,0000.0,0009.25,0004.51,0003.82
2022-09-16 16:46:00,,0826.1,5.01,0.00,30.2,29.1,00.0,38.8,32.1,26.0,0000.0,0009.22,0004.48,0003.81
2022-09-16 16:47:00,,0826.1,5.00,0.00,30.3,28.7,00.0,38.9,32.1,25.9,0000.0,0009.23,0004.47,0003.80
2022-09-16 16:48:00,,0826.1,5.00,0.00,30.3,27.5,00.0,38.8,32.1,26.5,0000.0,0008.95,0004.43,0003.79
2022-09-16 16:49:00,,0826.0,5.01,0.00,30.2,26.8,00.0,38.8,32.0,26.6,0000.0,0008.59,0004.43,0003.80
2022-09-16 16:50:00,,0826.0,5.00,0.00,30.2,27.0,00.0,38.8,31.9,26.5,0000.0,0008.67,0004.44,0003.82
2022-09-16 16:51:00,,0826.0,5.00,0.00,30.1,27.3,00.0,38.7,31.7,26.7,0000.0,0008.55,0004.39,0003.83
2022-09-16 16:52:00,,0826.0,5.00,0.00,30.0,27.6,00.0,38.7,31.8,26.8,0000.0,0008.68,0004.44,0003.84
2022-09-16 16:53:00,,0826.0,5.00,0.00,30.0,27.9,00.0,38.7,31.8,27.8,0000.0,0008.88,0004.48,0003.84
2022-09-16 16:54:00,,0826.0,4.99,0.00,30.0,28.1,00.0,38.7,31.8,28.2,0000.0,0008.88,0004.50,0003.86
2022-09-16 16:55:00,,0826.0,5.01,0.00,30.0,28.3,00.0,38.7,31.9,28.0,0000.0,0009.08,0004.55,0003.88
2022-09-16 16:56:00,,0826.0,4.99,0.00,30.0,28.5,00.0,38.7,31.9,27.2,0000.0,0009.67,0004.59,0003.90
2022-09-16 16:57:00,,0826.0,5.01,0.00,30.1,28.7,00.0,38.7,31.9,27.0,0000.0,0009.57,0004.63,0003.91
2022-09-16 16:58:00,,0826.0,4.99,0.00,30.1,28.7,00.0,38.7,31.9,27.4,0000.0,0010.17,0004.64,0003.92
2022-09-16 16:59:00,,0826.0,5.00,0.00,30.1,28.8,00.0,38.7,32.0,26.8,0000.0,0010.35,0004.63,0003.92
